Location: Newark
(55.7083°N, 13.1992°E)
Time: 22:27:14
(UTC+00:00)

Vanguard 1 - All Passes

Search period start: 23 February 2020 00:00
Search period end: 04 March 2020 00:00
Orbit: 650 x 3833 km, 34.2° (Epoch: 22 February)

Date Brightness Start Highest point End Pass type
(mag) Time Alt. Az. Time Alt. Az. Time Alt. Az.
23 Feb - 04:13:49 10° SSE 04:18:13 11° SE 04:22:22 10° ESE visible
23 Feb - 06:24:05 10° SSW 06:39:23 25° SSE 06:50:53 10° ESE daylight
23 Feb - 08:45:25 10° SW 09:00:52 31° S 09:11:03 10° SE daylight
23 Feb - 11:10:20 10° WSW 11:21:00 22° SSW 11:28:17 10° SSE daylight
24 Feb - 04:28:02 10° SSE 04:38:28 15° SE 04:47:41 10° ESE visible
24 Feb - 06:43:27 10° SSW 06:59:57 28° SSE 07:12:01 10° ESE daylight
24 Feb - 09:05:57 10° WSW 09:21:26 31° S 09:31:32 10° SE daylight
24 Feb - 11:31:39 10° WSW 11:41:12 20° SSW 11:48:00 10° S daylight
25 Feb - 04:45:13 10° S 04:58:48 20° SE 05:10:20 10° ESE visible
25 Feb - 07:03:12 10° SW 07:20:33 31° SSE 07:32:55 10° ESE daylight
25 Feb - 09:26:40 10° WSW 09:41:54 31° SSW 09:51:54 10° SE daylight
25 Feb - 11:53:18 10° WSW 12:01:18 17° SW 12:07:19 10° S daylight
26 Feb - 05:03:31 10° SSW 05:19:12 24° SSE 05:32:09 10° ESE visible
26 Feb - 07:23:18 10° SW 07:41:09 33° S 07:53:41 10° ESE daylight
26 Feb - 09:47:33 10° WSW 10:02:20 29° SSW 10:12:05 10° SE daylight
26 Feb - 12:15:37 10° WSW 12:21:17 13° SW 12:25:54 10° SSW daylight
27 Feb - 03:10:52 10° SSE 03:18:29 13° SE 03:25:45 10° ESE visible
27 Feb - 05:22:30 10° SSW 05:39:40 28° SSE 05:53:32 10° ESE visible
27 Feb - 07:43:38 10° SW 08:01:45 35° S 08:14:18 10° ESE daylight
27 Feb - 10:08:37 10° WSW 10:22:39 27° SSW 10:32:06 10° SSE daylight
28 Feb - 03:26:32 10° S 03:38:36 17° SE 03:49:48 10° ESE visible
28 Feb - 05:41:58 10° SSW 06:00:11 31° SSE 06:14:37 10° ESE daylight
28 Feb - 08:04:11 10° WSW 08:22:19 35° S 08:34:48 10° SE daylight
28 Feb - 10:29:53 10° WSW 10:42:52 24° SSW 10:51:53 10° SSE daylight
29 Feb - 03:44:06 10° S 03:58:47 22° SE 04:12:14 10° ESE visible
29 Feb - 06:01:48 10° SW 06:20:45 34° SSE 06:35:32 10° ESE daylight
29 Feb - 08:24:54 10° WSW 08:42:50 34° SSW 08:55:09 10° SE daylight
29 Feb - 10:51:25 10° WSW 11:02:58 21° SW 11:11:20 10° S daylight
01 Mar - 04:02:37 10° SSW 04:19:04 26° SSE 04:33:59 10° ESE visible
01 Mar - 06:21:54 10° SW 06:41:20 36° S 06:56:17 10° ESE daylight
01 Mar - 08:45:47 10° WSW 09:03:16 33° SSW 09:15:22 10° SE daylight
01 Mar - 11:13:22 10° WSW 11:22:56 17° SW 11:30:16 10° S daylight
02 Mar - 02:10:01 10° SSE 02:18:29 13° SE 02:26:56 10° ESE visible
02 Mar - 04:21:42 10° SSW 04:39:26 30° SSE 04:55:20 10° ESE visible
02 Mar - 06:42:15 10° SW 07:01:56 37° S 07:16:55 10° ESE daylight
02 Mar - 09:06:49 10° WSW 09:23:38 31° SSW 09:35:24 10° SSE daylight
02 Mar - 11:36:12 10° WSW 11:42:46 13° SW 11:48:15 10° SSW daylight
03 Mar - 02:26:12 10° SSE 02:38:26 18° SE 02:50:43 10° ESE visible
03 Mar - 04:41:15 10° SSW 04:59:53 33° SSE 05:16:27 10° ESE visible
03 Mar - 07:02:47 10° WSW 07:22:30 38° S 07:37:26 10° SE daylight
03 Mar - 09:28:02 10° WSW 09:43:52 28° SSW 09:55:11 10° SSE daylight
